Weather Roundup
Issued by NWS Chicago, IL

Home | Current Version | Previous Version | Text Only | Print | Product List | Glossary Off
Versions: 1 2 3 4 5 6 7 8 9 10 11 12 13 14 15 16 17 18 19 20 21 22 23 24 25 26 27 28 29 30 31 32 33 34 35 36 37 38 39 40 41 42 43 44 45 46 47 48 49 50

751
NZUS59 KLOT 241208
HRRLOT

CHICAGO AREA WEATHER ROUNDUP
NATIONAL WEATHER SERVICE CHICAGO/ROMEOVILLE IL
600 AM CST FRI NOV 24 2017

NOTE: "FAIR" INDICATES FEW OR NO CLOUDS BELOW 12,000 FEET WITH NO
SIGNIFICANT WEATHER AND/OR OBSTRUCTIONS TO VISIBILITY.

* THESE STATIONS ARE NOT UNDER NWS QUALITY CONTROL. THEY ALSO MAY NOT
  REPORT WEATHER SUCH AS PRECIPITATION OR FOG.

ILZ005-006-012>014-019>023-241300-
NORTHEAST ILLINOIS

CITY           SKY/WX    TMP DP  RH WIND       PRES   REMARKS
OHARE          PTCLDY    35  28  75 S6        29.76F WCI  30
6HR MIN TEMP:  32; 6HR MAX TEMP:  37;

MIDWAY         PTCLDY    37  28  70 S10       29.78F
6HR MIN TEMP:  34; 6HR MAX TEMP:  37;

AURORA         PTCLDY    32  27  81 S3        29.78F
6HR MIN TEMP:  28; 6HR MAX TEMP:  32;

LANSING*       CLOUDY    32  28  88 S6        29.82F WCI  26
JOLIET*        PTCLDY    34  30  86 S5        29.80F WCI  30
WAUKEGAN       CLEAR     38  29  70 SW15      29.72F
6HR MIN TEMP:  32; 6HR MAX TEMP:  38;

DUPAGE AIRPORT PTCLDY    33  29  85 S12       29.77F WCI  24
6HR MIN TEMP:  27; 6HR MAX TEMP:  33;

WHEELING       CLEAR     38  29  70 S8        29.77F
6HR MIN TEMP:  29; 6HR MAX TEMP:  38;

KANKAKEE*      PTCLDY    32  26  80 S7        29.84F WCI  26
MORRIS*        PTCLDY    31  27  86 S7        29.79F WCI  24
LEWIS AIRPORT* PTCLDY    32  29  88 S8        29.79F WCI  25
NORTHERLY ISL    N/A     37  27  67 SE6         N/A
$$

WIZ051-052-058>065-066-070>072-241300-
SOUTHEAST WISCONSIN

CITY           SKY/WX    TMP DP  RH WIND       PRES   REMARKS
MILWAUKEE      CLOUDY    42  30  62 SW16      29.69F
6HR MIN TEMP:  35; 6HR MAX TEMP:  42;

KENOSHA*       PTCLDY    39  28  64 SW12      29.71F
RACINE*        PTCLDY    39  29  67 SW12      29.72F
BURLINGTON     CLEAR     42  35  76 SW16      29.70F
WAUKESHA       CLEAR     39  28  65 SW12G17   29.69F
WEST BEND      MOCLDY    43  32  65 SW10      29.64F
$$

INZ001>003-010>013-019-020-241300-
NORTHWEST INDIANA

CITY           SKY/WX    TMP DP  RH WIND       PRES   REMARKS
GARY*          PTCLDY    36  27  69 S8        29.82F
MICHIGAN CITY* NOT AVBL
RENSSELAER*    NOT AVBL
VALPARAISO     CLOUDY    33  26  75 S8        29.84F WCI  26
$$

LMZ740>746-241300-
SOUTHERN LAKE MICHIGAN

STATION/POSITION TIME  SKY/WX   TEMP WIND        PRES    VSBY
                                AIR  DIR/SP/G
                 (UTC)          (F)  (DEG/KT/KT) (MB)    (MI)
HARRISON CRIB    1140            40  200/ 16/ 18   N/A
BURNHAM HARBOR   1200            38  250/  6/  9   N/A
CALUMET HARBOR   1148            36  190/  8/ 12 1008.4F
BURNS HARBOR     1140            36  190/ 13/ 16 1010.2F
MICHIGAN CITY    1140            35  170/  8/ 12   N/A
$$

ABBREVIATIONS USED IN REMARKS
   TC - TEMPERATURE IN CELSIUS
  WCI - WIND CHILL INDEX
   HX - HEAT INDEX
  VSB - VISIBILITY
$$




USA.gov is the U.S. government's official web portal to all federal, state and local government web resources and services.